EW6810 Weather Reports


Display with metric or nautical units.
time (UTC)temp
F
wind
direction
speed
MPH
gust
MPH
rain 1hr
in
rain 24hr
in
rain mn
in
humidity
%
barometer
mb
20260901212537 67 204 2.0 5.0 0.00 0.00 0.00 65 1004.9
20260901212037 67 164 2.0 7.0 0.00 0.00 0.00 64 1004.9
20260901211537 67 150 2.0 7.0 0.00 0.00 0.00 66 1004.9
20260901211036 68 164 2.0 4.0 0.00 0.00 0.00 64 1004.9
20260901210636 68 150 0.0 4.0 0.00 0.00 0.00 67 1004.8
20260901210039 68 153 1.0 5.0 0.00 0.00 0.00 67 1004.8
20260901205535 68 140 2.0 5.0 0.00 0.00 0.00 65 1004.8
20260901205035 68 129 1.0 6.0 0.00 0.00 0.00 65 1004.8
20260901204537 68 52 0.0 6.0 0.00 0.00 0.00 67 1004.8
20260901204034 68 154 1.0 8.0 0.00 0.00 0.00 67 1004.8
20260901203537 69 79 1.0 8.0 0.00 0.00 0.00 68 1004.8
20260901203033 69 296 1.0 5.0 0.00 0.00 0.00 66 1004.9
20260901202533 69 47 2.0 5.0 0.00 0.00 0.00 65 1004.9
20260901202041 69 325 1.0 5.0 0.00 0.00 0.00 67 1004.9
20260901201533 69 130 1.0 5.0 0.00 0.00 0.00 65 1005.0
20260901201035 70 176 1.0 6.0 0.00 0.00 0.00 64 1005.0
20260901200637 70 176 2.0 6.0 0.00 0.00 0.00 63 1005.0
20260901200106 72 73 1.0 8.0 0.00 0.00 0.00 63 1005.0
20260901195556 70 141 2.0 8.0 0.00 0.00 0.00 65 1005.0
20260901195058 69 84 2.0 9.0 0.00 0.00 0.00 65 1004.9
20260901194602 70 223 4.0 9.0 0.00 0.00 0.00 63 1005.0
20260901194057 70 36 1.0 9.0 0.00 0.00 0.00 65 1005.0
20260901193553 69 125 0.0 9.0 0.00 0.00 0.00 66 1005.1
20260901193100 68 212 1.0 4.0 0.00 0.00 0.00 68 1005.1
20260901192552 68 145 1.0 4.0 0.00 0.00 0.00 67 1005.1
20260901192054 68 148 0.0 3.0 0.00 0.00 0.00 68 1005.1
20260901191551 68 69 0.0 6.0 0.00 0.00 0.00 69 1005.2
20260901191050 68 111 2.0 7.0 0.00 0.00 0.00 67 1005.2
20260901190551 68 125 0.0 4.0 0.00 0.00 0.00 67 1005.2
20260901185550 69 118 1.0 5.0 0.00 0.00 0.00 66 1005.2
20260901185050 68 148 2.0 6.0 0.00 0.00 0.00 69 1005.3
20260901184650 67 121 2.0 6.0 0.00 0.00 0.00 69 1005.3
20260901184050 68 206 2.0 5.0 0.00 0.00 0.00 69 1005.2
20260901183549 68 139 2.0 7.0 0.00 0.00 0.00 68 1005.3
20260901183050 69 142 1.0 7.0 0.00 0.00 0.00 66 1005.3
20260901182551 68 61 2.0 7.0 0.00 0.00 0.00 66 1005.3
20260901182048 68 154 1.0 7.0 0.00 0.00 0.00 69 1005.3
20260901181549 68 150 2.0 8.0 0.00 0.00 0.00 69 1005.2
20260901181047 68 158 2.0 8.0 0.00 0.00 0.00 70 1005.4
20260901180648 68 234 2.0 8.0 0.00 0.00 0.00 70 1005.4
20260901180054 68 214 3.0 9.0 0.00 0.00 0.00 69 1005.4
20260901175553 69 192 1.0 4.0 0.00 0.00 0.00 68 1005.3
20260901175052 68 36 1.0 8.0 0.00 0.00 0.00 70 1005.4
20260901174602 68 93 1.0 9.0 0.00 0.00 0.00 69 1005.4
20260901174050 67 217 3.0 9.0 0.00 0.00 0.00 73 1005.3
20260901173549 66 171 1.0 3.0 0.00 0.00 0.00 73 1005.2
20260901173049 66 172 1.0 3.0 0.00 0.00 0.00 74 1005.3
20260901172547 66 243 0.0 3.0 0.00 0.00 0.00 73 1005.4
20260901172046 66 101 0.0 5.0 0.00 0.00 0.00 74 1005.4
20260901171544 64 273 1.0 5.0 0.00 0.00 0.00 76 1005.4
20260901171043 64 286 1.0 6.0 0.00 0.00 0.00 77 1005.4
20260901170645 64 214 1.0 6.0 0.00 0.00 0.00 77 1005.5
20260901170138 63 159 2.0 6.0 0.00 0.00 0.00 77 1005.6
20260901165549 63 149 2.0 4.0 0.00 0.00 0.00 77 1005.6
20260901165048 63 155 1.0 4.0 0.00 0.00 0.00 78 1005.6
20260901164545 63 151 2.0 4.0 0.00 0.00 0.00 77 1005.7
20260901164044 63 207 0.0 3.0 0.00 0.00 0.00 79 1005.7
20260901163543 62 34 0.0 2.0 0.00 0.00 0.00 79 1005.7
20260901163044 62 25 0.0 2.0 0.00 0.00 0.00 79 1005.7
20260901162544 62 24 0.0 2.0 0.00 0.00 0.00 79 1005.8
20260901162042 62 23 0.0 0.0 0.00 0.00 0.00 80 1005.8
20260901161546 61 23 0.0 2.0 0.00 0.00 0.00 80 1005.8
20260901161038 61 23 0.0 2.0 0.00 0.00 0.00 79 1005.7
20260901160638 61 23 0.0 2.0 0.00 0.00 0.00 80 1005.8
20260901160045 60 23 0.0 2.0 0.00 0.00 0.00 80 1005.8
20260901155543 60 23 0.0 1.0 0.00 0.00 0.00 81 1005.8
20260901155044 60 23 0.0 1.0 0.00 0.00 0.00 81 1005.8
20260901154542 59 23 0.0 1.0 0.00 0.00 0.00 82 1005.9
20260901154041 59 23 0.0 1.0 0.00 0.00 0.00 83 1005.8
20260901153540 59 23 0.0 1.0 0.00 0.00 0.00 83 1005.8
20260901153058 59 23 0.0 1.0 0.00 0.00 0.00 84 1005.8
20260901152538 58 23 0.0 3.0 0.00 0.00 0.00 84 1005.6
20260901152037 58 23 0.0 3.0 0.00 0.00 0.00 84 1005.6
20260901151536 57 23 0.0 0.0 0.00 0.00 0.00 85 1005.5
20260901151035 57 23 0.0 0.0 0.00 0.00 0.00 86 1005.5
20260901150537 56 23 0.0 0.0 0.00 0.00 0.00 86 1005.5
20260901150033 56 23 0.0 0.0 0.00 0.00 0.00 86 1005.3
20260901145532 56 23 0.0 0.0 0.00 0.00 0.00 86 1005.3
20260901145032 56 23 0.0 0.0 0.00 0.00 0.00 86 1005.2
20260901144529 56 23 0.0 0.0 0.00 0.00 0.00 86 1005.2
20260901144029 56 23 0.0 0.0 0.00 0.00 0.00 86 1005.1
20260901143528 56 23 0.0 0.0 0.00 0.00 0.00 85 1005.0
20260901143028 56 23 0.0 0.0 0.00 0.00 0.00 85 1005.1
20260901142528 56 23 0.0 0.0 0.00 0.00 0.00 85 1005.1
20260901142027 56 23 0.0 0.0 0.00 0.00 0.00 85 1005.0
20260901141536 56 23 0.0 0.0 0.00 0.00 0.00 86 1005.1
20260901141026 55 23 0.0 0.0 0.00 0.00 0.00 86 1005.2
20260901140529 55 23 0.0 0.0 0.00 0.00 0.00 85 1005.1
20260901140029 55 23 0.0 0.0 0.00 0.00 0.00 85 1005.1
20260901135526 55 23 0.0 0.0 0.00 0.00 0.00 85 1005.0
20260901135028 55 23 0.0 0.0 0.00 0.00 0.00 85 1005.0
20260901134523 56 23 0.0 0.0 0.00 0.00 0.00 85 1005.1
20260901134022 56 23 0.0 0.0 0.00 0.00 0.00 84 1005.1
20260901133522 56 23 0.0 0.0 0.00 0.00 0.00 84 1005.0
20260901133022 56 23 0.0 0.0 0.00 0.00 0.00 84 1005.0
20260901132521 56 23 0.0 0.0 0.00 0.00 0.00 84 1004.9
20260901132021 56 23 0.0 0.0 0.00 0.00 0.00 84 1004.9
20260901131531 56 23 0.0 0.0 0.00 0.00 0.00 84 1004.9
20260901131020 56 23 0.0 0.0 0.00 0.00 0.00 84 1004.7
20260901130520 56 23 0.0 0.0 0.00 0.00 0.00 83 1004.8
20260901130018 56 23 0.0 0.0 0.00 0.00 0.00 84 1004.7
20260901125518 57 23 0.0 0.0 0.00 0.00 0.00 84 1004.7
20260901125018 57 23 0.0 0.0 0.00 0.00 0.00 84 1004.8
20260901124517 57 23 0.0 0.0 0.00 0.00 0.00 83 1004.8
20260901124019 57 23 0.0 0.0 0.00 0.00 0.00 83 1004.9
20260901123516 57 23 0.0 0.0 0.00 0.00 0.00 83 1004.9
20260901123017 57 23 0.0 0.0 0.00 0.00 0.00 83 1004.9
20260901122516 57 23 0.0 0.0 0.00 0.00 0.00 82 1005.0
20260901122016 57 23 0.0 0.0 0.00 0.00 0.00 83 1004.9
20260901121521 57 23 0.0 0.0 0.00 0.00 0.00 83 1005.0
20260901121016 57 23 0.0 0.0 0.00 0.00 0.00 82 1005.0
20260901120516 57 23 0.0 0.0 0.00 0.00 0.00 82 1005.0
20260901120015 57 23 0.0 0.0 0.00 0.00 0.00 83 1005.1
20260901115517 57 23 0.0 0.0 0.00 0.00 0.00 83 1005.1
20260901115015 57 23 0.0 0.0 0.00 0.00 0.00 83 1005.2
20260901114514 57 23 0.0 0.0 0.00 0.00 0.00 83 1005.1
20260901114014 57 23 0.0 0.0 0.00 0.00 0.00 83 1005.1
20260901113514 57 23 0.0 0.0 0.00 0.00 0.00 83 1005.1
20260901113014 57 23 0.0 0.0 0.00 0.00 0.00 83 1005.1
20260901112513 57 23 0.0 0.0 0.00 0.00 0.00 84 1005.0
20260901112013 57 23 0.0 0.0 0.00 0.00 0.00 84 1005.0
20260901111513 57 23 0.0 0.0 0.00 0.00 0.00 84 1005.0
20260901111013 56 23 0.0 0.0 0.00 0.00 0.00 84 1004.9
20260901110512 57 23 0.0 0.0 0.00 0.00 0.00 84 1004.9
20260901110018 57 23 0.0 0.0 0.00 0.00 0.00 84 1004.9
20260901105514 57 23 0.0 0.0 0.00 0.00 0.00 83 1004.9
20260901105011 57 23 0.0 0.0 0.00 0.00 0.00 83 1004.8
20260901104520 57 23 0.0 2.0 0.00 0.00 0.00 83 1004.8
20260901104011 57 23 0.0 2.0 0.00 0.00 0.00 82 1004.9
20260901103511 57 23 0.0 2.0 0.00 0.00 0.00 82 1004.9
20260901103010 57 23 0.0 2.0 0.00 0.00 0.00 82 1004.8
20260901102510 58 23 0.0 1.0 0.00 0.00 0.00 81 1004.9
20260901102011 58 23 0.0 4.0 0.00 0.00 0.00 82 1004.9
20260901101509 58 23 1.0 7.0 0.00 0.00 0.00 82 1004.9
20260901101009 57 260 0.0 7.0 0.00 0.00 0.00 83 1004.8
20260901100509 57 333 1.0 3.0 0.00 0.00 0.00 83 1004.9
20260901100009 57 242 1.0 2.0 0.00 0.00 0.00 83 1004.9
20260901095512 57 242 1.0 2.0 0.00 0.00 0.00 83 1004.9
20260901095007 57 242 0.0 2.0 0.00 0.00 0.00 82 1005.0
20260901094507 57 241 0.0 2.0 0.00 0.00 0.00 82 1005.0
20260901094006 57 241 0.0 2.0 0.00 0.00 0.00 82 1005.0
20260901093506 57 11 1.0 2.0 0.00 0.00 0.00 82 1004.9
20260901093006 58 11 0.0 2.0 0.00 0.00 0.00 82 1004.9
20260901092505 58 11 1.0 2.0 0.00 0.00 0.00 81 1004.9
20260901092007 58 11 1.0 3.0 0.00 0.00 0.00 81 1005.0
20260901091505 58 342 1.0 3.0 0.00 0.00 0.00 81 1005.0
20260901091003 58 37 1.0 3.0 0.00 0.00 0.00 81 1005.1
20260901090503 58 68 0.0 3.0 0.00 0.00 0.00 80 1005.1
20260901090006 58 68 1.0 3.0 0.00 0.00 0.00 80 1005.0
20260901085502 59 65 0.0 2.0 0.00 0.00 0.00 80 1005.0
20260901085002 59 65 0.0 2.0 0.00 0.00 0.00 80 1005.1
20260901084504 59 337 0.0 5.0 0.00 0.00 0.00 79 1005.0
20260901084001 59 338 1.0 5.0 0.00 0.00 0.00 80 1005.0
20260901083504 59 22 1.0 5.0 0.00 0.00 0.00 80 1005.1
20260901083004 59 357 1.0 5.0 0.00 0.00 0.00 80 1005.1
20260901082104 59 251 1.0 4.0 0.00 0.00 0.00 81 1005.0
20260901081612 58 225 1.0 8.0 0.00 0.00 0.00 82 1005.0
20260901081100 58 356 1.0 8.0 0.00 0.00 0.00 82 1004.9
20260901080602 58 5 0.0 0.0 0.00 0.00 0.00 82 1004.9
20260901080059 58 5 0.0 0.0 0.00 0.00 0.00 82 1004.9
20260901075559 58 5 0.0 0.0 0.00 0.00 0.00 81 1004.9
20260901075059 59 5 0.0 2.0 0.00 0.00 0.00 81 1004.8
20260901074557 59 6 0.0 2.0 0.00 0.00 0.00 81 1004.8
20260901074056 59 6 0.0 2.0 0.00 0.00 0.00 81 1004.8
20260901073555 59 5 1.0 2.0 0.00 0.00 0.00 81 1004.9
20260901073055 59 7 0.0 2.0 0.00 0.00 0.00 80 1004.9
20260901072555 59 7 0.0 3.0 0.00 0.00 0.00 80 1005.0
20260901072057 59 7 1.0 3.0 0.00 0.00 0.00 80 1005.1
20260901071554 59 23 0.0 1.0 0.00 0.00 0.00 79 1005.0
20260901071053 59 23 0.0 2.0 0.00 0.00 0.00 79 1004.9
20260901070553 59 23 0.0 2.0 0.00 0.00 0.00 79 1004.9
20260901070052 59 23 1.0 2.0 0.00 0.00 0.00 79 1004.9
20260901065557 59 23 1.0 2.0 0.00 0.00 0.00 79 1005.0
20260901065051 59 23 0.0 2.0 0.00 0.00 0.00 78 1004.9
20260901064551 60 23 0.0 2.0 0.00 0.00 0.00 78 1004.9
20260901064051 60 23 0.0 9.0 0.00 0.00 0.00 79 1004.9
20260901063550 60 23 1.0 9.0 0.00 0.00 0.00 80 1005.0
20260901063051 60 256 1.0 9.0 0.00 0.00 0.00 80 1004.9
20260901062550 60 301 0.0 4.0 0.00 0.00 0.00 81 1004.9
20260901062050 60 333 1.0 4.0 0.00 0.00 0.00 81 1004.9
20260901061554 60 8 2.0 4.0 0.00 0.00 0.00 81 1004.9
20260901061050 60 351 1.0 4.0 0.00 0.00 0.00 81 1004.9
20260901060550 60 340 1.0 2.0 0.00 0.00 0.00 80 1004.9
20260901060050 60 342 0.0 0.0 0.00 0.00 0.00 80 1005.0
20260901055552 60 342 0.0 1.0 0.00 0.00 0.00 80 1005.0
20260901055048 60 342 0.0 2.0 0.00 0.00 0.00 80 1005.1
20260901054548 60 342 0.0 2.0 0.00 0.00 0.00 81 1005.1
20260901054048 60 342 1.0 3.0 0.00 0.00 0.00 82 1005.1
20260901053548 60 342 1.0 3.0 0.00 0.00 0.00 82 1005.2
20260901053111 60 331 1.0 2.0 0.00 0.00 0.00 82 1005.2
20260901052547 60 331 0.0 2.0 0.00 0.00 0.00 82 1005.1
20260901052047 60 331 0.0 2.0 0.00 0.00 0.00 81 1005.1
20260901051547 61 331 0.0 2.0 0.00 0.00 0.00 81 1005.2
20260901051047 61 331 0.0 3.0 0.00 0.00 0.00 81 1005.2
20260901050647 61 333 0.0 3.0 0.00 0.00 0.00 81 1005.2
20260901050044 60 352 1.0 2.0 0.00 0.00 0.00 79 1005.2
20260901045542 60 354 0.0 2.0 0.00 0.00 0.00 79 1005.3
20260901045040 61 354 0.0 2.0 0.00 0.00 0.00 79 1005.3
20260901044540 61 354 1.0 2.0 0.00 0.00 0.00 79 1005.3
20260901044040 61 354 0.0 2.0 0.00 0.00 0.00 79 1005.3
20260901043540 61 354 0.0 1.0 0.00 0.00 0.00 79 1005.4
20260901043041 61 354 0.0 1.0 0.00 0.00 0.00 79 1005.3
20260901042542 62 354 0.0 1.0 0.00 0.00 0.00 80 1005.3
20260901042041 62 354 0.0 3.0 0.00 0.00 0.00 80 1005.2
20260901041542 62 354 1.0 3.0 0.00 0.00 0.00 80 1005.2
20260901041040 62 354 1.0 3.0 0.00 0.00 0.00 79 1005.2
20260901040518 62 353 0.0 2.0 0.00 0.00 0.00 80 1005.2
20260901040016 63 354 0.0 2.0 0.00 0.00 0.00 79 1005.2
20260901035518 63 354 1.0 2.0 0.00 0.00 0.00 79 1005.2
20260901035014 63 352 0.0 3.0 0.00 0.00 0.00 79 1005.2
20260901034521 63 352 0.0 3.0 0.00 0.00 0.00 78 1005.1
20260901034014 63 31 0.0 2.0 0.00 0.00 0.00 78 1005.1
20260901033514 63 31 1.0 2.0 0.00 0.00 0.00 77 1005.1
20260901033013 64 31 0.0 3.0 0.00 0.00 0.00 78 1005.1
20260901032514 63 31 0.0 3.0 0.00 0.00 0.00 78 1005.1
20260901032015 64 31 0.0 3.0 0.00 0.00 0.00 78 1005.2
20260901031524 64 175 0.0 0.0 0.00 0.00 0.00 78 1005.2
20260901031012 64 175 0.0 0.0 0.00 0.00 0.00 78 1005.1
20260901030512 64 175 0.0 1.0 0.00 0.00 0.00 77 1005.2
20260901030020 64 175 0.0 1.0 0.00 0.00 0.00 77 1005.2
20260901025512 64 175 0.0 1.0 0.00 0.00 0.00 77 1005.3
20260901025011 65 175 0.0 0.0 0.00 0.00 0.00 77 1005.4
20260901024521 65 175 0.0 0.0 0.00 0.00 0.00 76 1005.4
20260901024014 65 175 0.0 0.0 0.00 0.00 0.00 75 1005.3
20260901023512 65 175 0.0 0.0 0.00 0.00 0.00 74 1005.4
20260901023009 65 175 0.0 0.0 0.00 0.00 0.00 75 1005.4
20260901022509 65 175 0.0 0.0 0.00 0.00 0.00 74 1005.5
20260901022009 65 175 0.0 0.0 0.00 0.00 0.00 75 1005.6
20260901021509 66 175 0.0 0.0 0.00 0.00 0.00 74 1005.6
20260901021009 66 175 0.0 0.0 0.00 0.00 0.00 73 1005.6
20260901020509 66 175 0.0 0.0 0.00 0.00 0.00 72 1005.6
20260901020009 66 175 0.0 0.0 0.00 0.00 0.00 73 1005.6
20260901015507 66 175 0.0 1.0 0.00 0.00 0.00 71 1005.6
20260901015011 67 175 0.0 1.0 0.00 0.00 0.00 70 1005.7
20260901014507 67 175 0.0 1.0 0.00 0.00 0.00 70 1005.7
20260901014006 67 175 0.0 2.0 0.00 0.00 0.00 69 1005.8
20260901013506 67 175 0.0 2.0 0.00 0.00 0.00 69 1005.8
20260901013004 67 175 0.0 2.0 0.00 0.00 0.00 70 1005.8
20260901012506 67 175 0.0 1.0 0.00 0.00 0.00 70 1005.9
20260901012001 67 175 0.0 1.0 0.00 0.00 0.00 69 1005.9
20260901011603 67 175 0.0 1.0 0.00 0.00 0.00 69 1006.0
20260901011100 67 175 0.0 1.0 0.00 0.00 0.00 69 1006.1
20260901010558 68 175 0.0 2.0 0.00 0.00 0.00 66 1006.2
20260901010056 68 175 0.0 2.0 0.00 0.00 0.00 67 1006.2
20260901005555 69 175 0.0 2.0 0.00 0.00 0.00 66 1006.2
20260901005053 69 175 0.0 2.0 0.00 0.00 0.00 65 1006.3
20260901004552 69 180 1.0 3.0 0.00 0.00 0.00 64 1006.3
20260901004052 69 180 1.0 3.0 0.00 0.00 0.00 64 1006.3
20260901003548 70 196 0.0 4.0 0.00 0.00 0.00 62 1006.3
20260901003047 71 196 0.0 4.0 0.00 0.00 0.00 61 1006.4
20260901002548 72 165 0.0 3.0 0.00 0.00 0.00 60 1006.4
20260901002044 71 163 0.0 4.0 0.00 0.00 0.00 62 1006.5
20260901001543 72 127 1.0 4.0 0.00 0.00 0.00 59 1006.5
20260901001041 71 231 1.0 4.0 0.00 0.00 0.00 60 1006.5
20260901000642 71 192 2.0 4.0 0.00 0.00 0.00 60 1006.6
20260901000023 71 176 1.0 4.0 0.00 0.00 0.00 63 1006.7
20260831235521 71 182 1.0 4.0 0.00 0.00 0.00 65 1006.7
20260831235021 69 64 0.0 3.0 0.00 0.00 0.00 68 1006.8
20260831234518 69 106 0.0 4.0 0.00 0.00 0.00 66 1006.9
20260831234019 70 126 1.0 4.0 0.00 0.00 0.00 64 1007.0
20260831233519 71 52 0.0 4.0 0.00 0.00 0.00 63 1007.0
20260831233016 72 34 1.0 4.0 0.00 0.00 0.00 62 1007.0
20260831232516 72 164 2.0 6.0 0.00 0.00 0.00 60 1007.1
20260831232014 71 229 2.0 6.0 0.00 0.00 0.00 61 1007.1
20260831231513 70 186 2.0 5.0 0.00 0.00 0.00 61 1007.2
20260831231013 71 195 2.0 5.0 0.00 0.00 0.00 61 1007.2
20260831230625 72 106 1.0 4.0 0.00 0.00 0.00 61 1007.2
20260831230138 71 93 1.0 5.0 0.00 0.00 0.00 61 1007.3
20260831225558 71 158 2.0 5.0 0.00 0.00 0.00 61 1007.3
20260831225100 71 128 2.0 5.0 0.00 0.00 0.00 59 1007.4
20260831224556 71 134 0.0 4.0 0.00 0.00 0.00 62 1007.4
20260831224058 70 193 0.0 6.0 0.00 0.00 0.00 60 1007.5
20260831223559 71 195 2.0 7.0 0.00 0.00 0.00 59 1007.6
20260831223054 70 132 1.0 7.0 0.00 0.00 0.00 60 1007.8
20260831222553 70 141 2.0 4.0 0.00 0.00 0.00 60 1007.9
20260831222053 70 172 1.0 4.0 0.00 0.00 0.00 60 1007.9
20260831221613 69 191 2.0 4.0 0.00 0.00 0.00 59 1007.9
20260831221052 69 228 0.0 5.0 0.00 0.00 0.00 63 1008.0
20260831220650 69 184 1.0 5.0 0.00 0.00 0.00 61 1008.1
20260831220050 69 182 1.0 6.0 0.00 0.00 0.00 62 1008.1
20260831215548 68 148 3.0 5.0 0.00 0.00 0.00 60 1008.2
20260831215050 69 159 1.0 4.0 0.00 0.00 0.00 63 1008.2
20260831214549 69 111 1.0 5.0 0.00 0.00 0.00 61 1008.4
20260831214047 68 228 2.0 8.0 0.00 0.00 0.00 62 1008.4
20260831213547 69 213 3.0 8.0 0.00 0.00 0.00 62 1008.4
20260831213053 69 163 1.0 6.0 0.00 0.00 0.00 61 1008.4